Lapeer, MI

11:03 AM EST on February 24, 2017 (GMT -0500)
Lapeer

Weather History for KD95 - October, 2012

Change the Weather History Date:

Tuesday, October 2, 2012

  Actual Average (KFNT) Record (KFNT)
Temperature  
Mean Temperature 59 °F -  
Max Temperature 70 °F 66 °F 85 °F (1922)
Min Temperature 48 °F 45 °F 27 °F (1974)
Degree Days  
Heating Degree Days 6    
Growing Degree Days 9 (Base 50)    
Moisture  
Dew Point 49 °F    
Average Humidity 76    
Maximum Humidity 100    
Minimum Humidity 41    
Precipitation  
Precipitation 0.00 in - - ()
Sea Level Pressure  
Sea Level Pressure 29.89 in    
Wind  
Wind Speed 2 mph ()    
Max Wind Speed 9 mph    
Max Gust Speed -    
Visibility 10.0 miles    
Events Rain    
Averages and records for this station are not official NWS values.
T = Trace of Precipitation, MM = Missing Value Source: Averaged Metar Reports

Daily Weather History Graph

Daily Weather History Graph

Search for Another Location

Airport or City:

Trip Planner

Search our weather history database for the weather conditions in past years. The results will help you decide how hot, cold, wet, or windy it might be!

Date:

Astronomy

Oct. 02, 2012 Rise Set
Actual Time 7:32 AM EDT 7:11 PM EDT
Civil Twilight 7:03 AM EDT 7:39 PM EDT
Nautical Twilight 6:30 AM EDT 8:12 PM EDT
Astronomical Twilight 5:57 AM EDT 8:46 PM EDT
Moon 8:18 PM EDT (10/2) 10:03 AM EDT (10/2)
Length of Visible Light 12h 36m
Length of Day
11h 39m
Waning Gibbous, 94% of the Moon is Illuminated
Oct 2
Waning Gibbous
Oct 8
Last Quarter
Oct 15
New
Oct 21
First Quarter
Oct 29
Full

Hourly Weather History & Observations

Time (EDT) Temp. Dew Point Humidity Pressure Visibility Wind Dir Wind Speed Gust Speed Precip Events Conditions
12:13 AM 49.1 °F 49.1 °F 100% 29.88 in 10.0 mi Calm Calm - N/A   Clear
12:34 AM 49.5 °F 49.5 °F 100% 29.87 in 10.0 mi Calm Calm - N/A   Clear
12:53 AM 49.1 °F 49.1 °F 100% 29.86 in 10.0 mi Calm Calm - N/A   Clear
1:13 AM 49.3 °F 49.3 °F 100% 29.86 in 10.0 mi Calm Calm - N/A   Clear
1:34 AM 49.1 °F 49.1 °F 100% 29.86 in 10.0 mi Calm Calm - N/A   Clear
1:53 AM 49.1 °F 49.1 °F 100% 29.86 in 10.0 mi Calm Calm - N/A   Clear
2:34 AM 48.7 °F 48.7 °F 100% 29.85 in 10.0 mi Calm Calm - N/A   Clear
2:53 AM 49.8 °F 49.8 °F 100% 29.85 in 10.0 mi SE 3.5 mph - N/A   Mostly Cloudy
3:14 AM 50.5 °F 50.5 °F 100% 29.86 in 10.0 mi Calm Calm - N/A   Overcast
3:33 AM 49.6 °F 49.6 °F 100% 29.84 in 10.0 mi Calm Calm - N/A   Mostly Cloudy
4:14 AM 50.9 °F 50.9 °F 100% 29.85 in 10.0 mi Calm Calm - N/A   Overcast
4:33 AM 50.2 °F 50.2 °F 100% 29.85 in 10.0 mi Calm Calm - N/A   Overcast
4:53 AM 50.4 °F 50.4 °F 100% 29.86 in 10.0 mi Calm Calm - N/A   Overcast
5:14 AM 50.4 °F 50.4 °F 100% 29.86 in 10.0 mi Calm Calm - N/A   Overcast
5:34 AM 50.2 °F 50.2 °F 100% 29.86 in 10.0 mi Calm Calm - N/A   Overcast
5:53 AM 50.0 °F 50.0 °F 100% 29.86 in 10.0 mi Calm Calm - N/A   Overcast
6:34 AM 51.4 °F 51.4 °F 100% 29.87 in 10.0 mi Calm Calm - N/A   Overcast
6:53 AM 50.5 °F 50.5 °F 100% 29.87 in 10.0 mi Calm Calm - N/A   Overcast
7:14 AM 50.4 °F 50.4 °F 100% 29.88 in 10.0 mi Calm Calm - N/A   Overcast
7:33 AM 50.9 °F 50.9 °F 100% 29.88 in 10.0 mi Calm Calm - N/A   Overcast
8:14 AM 52.2 °F 52.2 °F 100% 29.90 in 10.0 mi Calm Calm - N/A   Overcast
8:33 AM 53.1 °F 52.9 °F 99% 29.90 in 10.0 mi Calm Calm - N/A   Overcast
8:53 AM 53.1 °F 53.1 °F 100% 29.90 in 10.0 mi Calm Calm - N/A   Overcast
9:14 AM 54.5 °F 53.6 °F 97% 29.90 in 10.0 mi North 3.5 mph - N/A   Overcast
9:33 AM 56.3 °F 53.4 °F 90% 29.90 in 10.0 mi Calm Calm - N/A   Scattered Clouds
9:53 AM 57.2 °F 53.1 °F 86% 29.91 in 10.0 mi NNE 4.6 mph - N/A   Mostly Cloudy
10:14 AM 58.3 °F 54.0 °F 86% 29.91 in 10.0 mi NNE 4.6 mph - N/A   Mostly Cloudy
10:33 AM 59.4 °F 50.7 °F 73% 29.90 in 10.0 mi NE 3.5 mph - N/A   Scattered Clouds
10:53 AM 61.0 °F 49.6 °F 66% 29.90 in 10.0 mi NNE 3.5 mph - N/A   Mostly Cloudy
11:14 AM 64.0 °F 48.6 °F 57% 29.90 in 10.0 mi NNE 5.8 mph - N/A   Overcast
11:33 AM 64.6 °F 48.0 °F 55% 29.90 in 10.0 mi NNE 5.8 mph - N/A   Overcast
11:53 AM 63.7 °F 47.7 °F 56% 29.90 in 10.0 mi NNE 5.8 mph - N/A   Mostly Cloudy
12:14 PM 64.4 °F 47.3 °F 54% 29.90 in 10.0 mi ENE 6.9 mph - N/A   Overcast
12:33 PM 65.1 °F 48.2 °F 54% 29.90 in 10.0 mi ENE 3.5 mph - N/A   Overcast
12:53 PM 66.4 °F 48.4 °F 52% 29.90 in 10.0 mi ENE 5.8 mph - N/A   Mostly Cloudy
1:14 PM 66.0 °F 48.4 °F 53% 29.89 in 10.0 mi East 4.6 mph - N/A   Mostly Cloudy
1:33 PM 66.9 °F 48.9 °F 52% 29.89 in 10.0 mi NNE 5.8 mph - N/A   Overcast
1:53 PM 67.8 °F 45.9 °F 45% 29.88 in 10.0 mi ENE 6.9 mph - N/A   Overcast
2:13 PM 69.8 °F 45.3 °F 41% 29.88 in 10.0 mi ENE 4.6 mph - N/A   Overcast
2:33 PM 68.7 °F 48.0 °F 48% 29.87 in 10.0 mi East 8.1 mph - N/A   Overcast
2:54 PM 70.0 °F 46.8 °F 43% 29.87 in 10.0 mi ENE 6.9 mph - N/A   Mostly Cloudy
3:13 PM 70.0 °F 46.0 °F 42% 29.87 in 10.0 mi ENE 5.8 mph - N/A   Clear
3:33 PM 70.0 °F 46.2 °F 43% 29.87 in 10.0 mi NE 6.9 mph - N/A   Clear
3:54 PM 69.6 °F 46.6 °F 44% 29.86 in 10.0 mi NE 5.8 mph - N/A   Clear
4:13 PM 70.0 °F 46.4 °F 43% 29.86 in 10.0 mi NE 5.8 mph - N/A   Clear
4:33 PM 70.0 °F 45.7 °F 42% 29.86 in 10.0 mi NNE 9.2 mph - N/A   Clear
4:54 PM 68.7 °F 45.5 °F 43% 29.87 in 10.0 mi ENE 6.9 mph - N/A   Mostly Cloudy
5:13 PM 68.9 °F 44.8 °F 42% 29.88 in 10.0 mi NE 8.1 mph - N/A   Mostly Cloudy
5:33 PM 68.4 °F 43.5 °F 41% 29.89 in 10.0 mi ENE 6.9 mph - N/A   Scattered Clouds
5:54 PM 67.6 °F 43.5 °F 42% 29.88 in 10.0 mi NE 5.8 mph - N/A   Scattered Clouds
6:13 PM 66.2 °F 44.2 °F 45% 29.89 in 10.0 mi ENE 3.5 mph - N/A   Scattered Clouds
6:33 PM 65.1 °F 44.6 °F 47% 29.90 in 10.0 mi NE 4.6 mph - N/A   Mostly Cloudy
7:13 PM 63.5 °F 46.4 °F 54% 29.90 in 10.0 mi NE 4.6 mph - N/A   Overcast
7:33 PM 61.9 °F 46.8 °F 58% 29.90 in 10.0 mi NE 3.5 mph - N/A   Mostly Cloudy
8:13 PM 59.9 °F 47.3 °F 63% 29.91 in 10.0 mi ENE 3.5 mph - N/A   Scattered Clouds
8:33 PM 58.5 °F 47.5 °F 67% 29.91 in 10.0 mi ENE 3.5 mph - N/A   Clear
9:13 PM 57.6 °F 49.3 °F 74% 29.92 in 10.0 mi Calm Calm - N/A   Scattered Clouds
9:33 PM 57.6 °F 50.0 °F 76% 29.92 in 10.0 mi Calm Calm - N/A   Mostly Cloudy
9:54 PM 57.2 °F 50.9 °F 79% 29.93 in 10.0 mi Calm Calm - N/A   Scattered Clouds
10:13 PM 56.3 °F 51.8 °F 85% 29.93 in 10.0 mi Calm Calm - N/A   Scattered Clouds
10:33 PM 56.3 °F 53.1 °F 89% 29.93 in 10.0 mi Calm Calm - N/A   Mostly Cloudy
10:54 PM 56.1 °F 54.3 °F 94% 29.93 in 10.0 mi Calm Calm - N/A   Mostly Cloudy
11:13 PM 56.1 °F 55.2 °F 97% 29.93 in 10.0 mi Calm Calm - N/A   Mostly Cloudy
11:33 PM 56.5 °F 55.6 °F 97% 29.94 in 10.0 mi Calm Calm - N/A   Overcast
11:54 PM 57.2 °F 56.1 °F 96% 29.93 in 10.0 mi Calm Calm - N/A Rain Light Rain